Overview Statistics Trail Chart Weather Telemetry Raw packets
 

This is the latest recevied weather packets stored in our database for station/object MeshWX-2. If no packets are shown the sender has not sent any weather packets the latest 10 day(s).

<< 1 2 3 4 5 >>
Time Temp. Humidity Pressure Rain* Wind** Luminosity Snow
1788549429 18.33° C 44% 885.5 hPa - - - -
1788549392 18.33° C 44% 885.5 hPa - - - -
1788547389 18.33° C 44% 885.5 hPa - - - -
1788547352 18.33° C 44% 885.5 hPa - - - -
1788545348 18.33° C 44% 885.3 hPa - - - -
1788545311 18.33° C 44% 885.3 hPa - - - -
1788543308 18.89° C 44% 884.9 hPa - - - -
1788543270 18.89° C 44% 884.9 hPa - - - -
1788541267 20° C 44% 884.6 hPa - - - -
1788541230 20° C 44% 884.6 hPa - - - -
1788539288 22.22° C 43% 884.7 hPa - - - -
1788539249 22.22° C 43% 884.7 hPa - - - -
1788537246 25° C 43% 884.5 hPa - - - -
1788537209 25° C 43% 884.5 hPa - - - -
1788535182 25° C 42% 884.5 hPa - - - -
1788535169 25° C 42% 884.5 hPa - - - -
1788535146 26.11° C 41% 884.3 hPa - - - -
1788533080 26.11° C 41% 884.3 hPa - - - -
1788533069 26.11° C 41% 884.3 hPa - - - -
1788533046 26.67° C 42% 884.4 hPa - - - -
1788531028 26.67° C 42% 884.4 hPa - - - -
1788531004 27.22° C 42% 884.3 hPa - - - -
1788529047 27.22° C 42% 884.3 hPa - - - -
1788529023 28.33° C 42% 884.5 hPa - - - -
1788528114 28.33° C 42% 884.5 hPa - - - -

* Rain since midnight (hover to see other rain measurements)
** Current wind speed in m/s (hover to see current wind gust speed)